[[{"header":{"parameterUnit":"m.s-1","parameterCategory":1,"la1":30.2992,"la2":30.254,"lo1":-89.0895,"lo2":-89.0443,"dy":0.0025,"dx":0.0025,"nx":19,"ny":19,"refTime":"2026-03-12T21:00:00:Z","depth":0,"parameterNumber":2,"parameterNumberName":"U-component_of_WINDS"},"data":[0,0,0,-0.5745,-0.5743,-0.5671,-0.567,-0.5592,-0.5592,0,0,0,0,0,0,0,0,0,0,0,-0.5774,-0.5774,-0.5745,-0.5743,-0.5671,-0.567,-0.5592,-0.5592,0,0,0,0,0,0,0,0,0,0,0,-0.5774,-0.5774,-0.5773,-0.5743,-0.5671,-0.567,-0.5593,-0.5642,0,0,0,0,0,0,0,0,0,0,-0.571,-0.5745,-0.5774,-0.5773,-0.5742,-0.5671,-0.567,-0.5644,-0.5639,-0.5631,0,-0.5625,0,-0.5607,-0.5587,-0.5587,0,0,0,-0.5737,-0.5749,-0.5722,-0.5773,-0.5742,-0.5671,-0.5702,-0.5641,-0.5635,-0.5624,-0.5624,-0.5621,-0.5606,-0.5587,-0.5587,-0.556,-0.556,0,0,-0.5741,-0.5765,-0.5727,-0.5719,-0.573,-0.5704,-0.57,-0.5637,-0.5639,-0.5624,-0.5619,-0.5605,-0.5587,-0.5586,-0.556,-0.556,0,0,0,-0.5757,-0.5768,-0.5743,-0.5723,-0.5709,-0.5702,-0.5697,-0.5642,-0.5632,-0.5618,-0.5604,-0.5586,-0.5585,-0.556,-0.556,-0.5591,0,0,0,-0.5759,-0.5777,-0.5745,-0.5759,-0.571,-0.5674,-0.5703,-0.5636,-0.5628,-0.5604,-0.5586,-0.5585,-0.5559,-0.556,-0.559,-0.5601,0,0,0,-0.5776,-0.5779,-0.5771,-0.576,-0.573,-0.5674,-0.566,-0.5634,-0.562,-0.5587,-0.5585,-0.5559,-0.556,-0.5588,-0.5599,-0.5602,0,0,0,-0.5801,-0.5799,-0.5772,-0.5765,-0.5731,-0.5694,-0.566,-0.5632,-0.5608,-0.5586,-0.5559,-0.556,-0.5588,-0.5598,-0.5601,-0.5608,-0.5614,0,0,-0.5812,-0.5801,-0.5795,-0.5769,-0.5743,-0.5703,-0.5682,-0.5637,-0.5612,-0.5579,-0.5578,-0.559,-0.5599,-0.5602,-0.5635,-0.564,0,0,0,-0.5806,-0.5802,-0.579,-0.5768,-0.5734,-0.5706,-0.5662,-0.5646,-0.5617,-0.56,-0.5591,-0.5596,-0.5596,-0.5599,-0.5602,-0.5602,-0.5562,-0.5562,-0.5562,-0.5855,-0.5824,-0.5812,-0.5773,-0.5753,-0.5708,-0.5689,-0.5659,-0.5633,-0.5632,-0.5622,-0.5646,-0.565,-0.5652,-0.5652,-0.5623,-0.5623,-0.5623,-0.5623,-0.5868,-0.5858,-0.5825,-0.5801,-0.5769,-0.575,-0.5708,-0.5691,-0.5668,-0.565,-0.5649,-0.5632,-0.5658,-0.5656,-0.5625,-0.5625,-0.5625,-0.5625,-0.5624,-0.5897,-0.5886,-0.5867,-0.5833,-0.5811,-0.5772,-0.5753,-0.5724,-0.5697,-0.5696,-0.5683,-0.5682,-0.5678,-0.5692,-0.5692,-0.5692,-0.5692,-0.5692,-0.5692,-0.5934,-0.5911,-0.5898,-0.5863,-0.5846,-0.5821,-0.5778,-0.5761,-0.5735,-0.5715,-0.5715,-0.569,-0.5666,-0.5661,-0.5693,-0.5693,-0.5693,-0.5693,-0.5693,-0.5958,-0.5948,-0.5928,-0.5911,-0.5869,-0.5851,-0.5815,-0.5783,-0.5765,-0.5757,-0.5733,-0.572,-0.5707,-0.5704,-0.5699,-0.5739,-0.5739,-0.5739,-0.5739,-0.5982,-0.5973,-0.5947,-0.5922,-0.5895,-0.5862,-0.5842,-0.5809,-0.5774,-0.5762,-0.5752,-0.5744,-0.5742,-0.573,-0.5726,-0.5721,-0.5766,-0.5766,-0.5766,-0.5996,-0.5983,-0.5971,-0.5936,-0.5902,-0.5874,-0.5854,-0.5829,-0.5787,-0.5767,-0.5752,-0.575,-0.5737,-0.5734,-0.5712,-0.5706,-0.5697,0,0]},{"header":{"parameterUnit":"m.s-1","parameterCategory":1,"la1":30.2992,"la2":30.254,"lo1":-89.0895,"lo2":-89.0443,"dy":0.0025,"dx":0.0025,"nx":19,"ny":19,"refTime":"2026-03-12T21:00:00:Z","depth":0,"parameterNumber":3,"parameterNumberName":"V-component_of_WINDS"},"data":[0,0,0,1.7395,1.7394,1.7314,1.7313,1.7204,1.7203,0,0,0,0,0,0,0,0,0,0,0,1.7417,1.7417,1.7396,1.7394,1.7314,1.7313,1.7204,1.7203,0,0,0,0,0,0,0,0,0,0,0,1.7418,1.7417,1.7416,1.7393,1.7314,1.7313,1.7204,1.7266,0,0,0,0,0,0,0,0,0,0,1.7345,1.7364,1.7417,1.7416,1.7393,1.7314,1.7313,1.727,1.7263,1.7238,0,1.7218,0,1.7209,1.7195,1.7195,0,0,0,1.7394,1.737,1.7351,1.7416,1.7392,1.7314,1.735,1.7266,1.7258,1.7228,1.7216,1.7212,1.7207,1.7195,1.7194,1.7056,1.7055,0,0,1.7398,1.7401,1.7356,1.7345,1.7361,1.7352,1.7347,1.7261,1.7247,1.7216,1.721,1.7205,1.7194,1.7193,1.7056,1.7055,0,0,0,1.7411,1.7404,1.7387,1.735,1.7336,1.735,1.7344,1.7251,1.7245,1.7209,1.7204,1.7193,1.7192,1.7057,1.7056,1.7026,0,0,0,1.7413,1.7412,1.7389,1.739,1.7338,1.7293,1.7336,1.7251,1.7241,1.7204,1.7193,1.7191,1.7058,1.7056,1.7029,1.7011,0,0,0,1.7423,1.7413,1.7401,1.739,1.7356,1.7294,1.7284,1.7249,1.7238,1.7195,1.719,1.7058,1.7057,1.7031,1.7014,1.6975,0,0,0,1.7433,1.7375,1.7401,1.7333,1.7357,1.7278,1.7284,1.7224,1.7184,1.7193,1.7058,1.7056,1.7032,1.7017,1.6977,1.6941,1.6927,0,0,1.7361,1.7366,1.7326,1.7347,1.7264,1.729,1.7201,1.716,1.7152,1.7087,1.7084,1.7028,1.7015,1.6975,1.6849,1.6838,0,0,0,1.7304,1.7275,1.7253,1.7216,1.7185,1.7156,1.7128,1.7113,1.7058,1.7121,1.7004,1.6995,1.6972,1.6955,1.6945,1.6924,1.7049,1.7049,1.7049,1.7205,1.72,1.7132,1.7117,1.7081,1.7054,1.7023,1.6997,1.7001,1.6974,1.6954,1.6878,1.6858,1.6851,1.6829,1.6936,1.6935,1.6935,1.6935,1.7097,1.7054,1.7063,1.7001,1.6995,1.6941,1.6912,1.6917,1.6864,1.6893,1.6872,1.6902,1.6839,1.6819,1.6933,1.6933,1.6934,1.6934,1.6934,1.703,1.7009,1.6993,1.6939,1.6897,1.6883,1.6833,1.6829,1.6824,1.6804,1.6782,1.6782,1.6781,1.6794,1.6794,1.6793,1.6793,1.6793,1.6793,1.6966,1.6949,1.6909,1.6872,1.6847,1.6814,1.6786,1.6761,1.6731,1.6732,1.6732,1.6737,1.6835,1.6859,1.6789,1.6789,1.679,1.679,1.6791,1.6856,1.6881,1.6819,1.6794,1.6749,1.6707,1.6704,1.6652,1.6631,1.6606,1.6616,1.669,1.6694,1.6701,1.672,1.6619,1.6619,1.6619,1.6619,1.6799,1.6801,1.6737,1.6698,1.6659,1.6649,1.6576,1.6553,1.6533,1.6519,1.6533,1.6559,1.6567,1.6566,1.6577,1.6595,1.6463,1.6463,1.6463,1.673,1.6729,1.6669,1.6652,1.6616,1.6585,1.6516,1.6468,1.645,1.6457,1.6507,1.6514,1.6556,1.657,1.6576,1.6592,1.6625,0,0]}]]